Other Surface Observations
Issued by NWS Charleston, SC

Home | Current Version | Previous Version | Text Only | Print | Product List | Glossary On
Versions: 1 2 3 4 5 6 7 8 9 10 11 12 13 14 15 16 17 18 19 20 21 22 23 24 25 26 27 28 29 30 31 32 33 34 35 36 37 38 39 40 41 42 43 44 45 46 47 48 49 50
464
SXUS52 KCHS 260013
OSOCHS

MARINE OBSERVATIONS
NATIONAL WEATHER SERVICE CHARLESTON SC
800 PM EDT SUN SEP 25 2016

...DOWNTOWN CHARLESTON AND HARBOR...

CITY           SKY/WX    TMP DP  RH WIND       PRES   REMARKS
WATERFRONT PRK   N/A     80  75  84 E10       30.03R

...LAKE MOULTRIE...

CITY           SKY/WX    TMP DP  RH WIND       PRES   REMARKS
PINOPOLIS        N/A     81  73  78 SE5       29.98S

...LAKE AND SUPPLEMENTAL COASTAL OBSERVATIONS...

STATION/POSITION TIME  TEMP    WIND        PRES    WAVE   SWELL
                       AIR SEA DIR/SP/G            HT/PER HT/PER/DIR
                 (UTC) (F)     (DEG/KT/KT) (MB)    (FT/S) (FT/S/D)
FORT PULASKI     2342      82   60/ 15/ 18 1017.5S
SAPELO ISLAND    2300   81      60/  6     1017.0
WINYAH BAY       NOT AVBL
LAKE MURRAY      2320   83     110/  2/  6 1016.6S
ACE BASIN NERRS  2245   80      80/  3     1017.0


...C-MAN AND BUOY OBSERVATIONS...

STATION/POSITION TIME  TEMP    WIND        PRES    WAVE   SWELL
                       AIR SEA DIR/SP/G            HT/PER HT/PER/DIR
                 (UTC) (F)     (DEG/KT/KT) (MB)    (FT/S) (FT/S/D)
BUOY 41004       2350   81 82   70/ 17/ 19 1016.5R   5/10   3/100/10
BUOY 41008       2350   82 82   60/ 17/ 19 1016.0R   4/10   2/110/10
FOLLY BEACH CMAN 0000   80      70/ 14/ 16 1017.6R
CAPERS NS BUOY   2308   80 81   80/ 14/ 17 1017.1R
FRIPP NS BUOY    2308   80 81   80/ 16/ 19 1016.9R
5E ST. MARYS GA  2301      83                N/A     4/11   2/110/11


STATION/POSITION TIME  TEMP    WIND        PRES    WAVE   SWELL
                       AIR SEA DIR/SP/G            HT/PER HT/PER/DIR
                 (UTC) (F)     (DEG/KT/KT) (MB)    (FT/S) (FT/S/D)
FRYING PAN BUOY  2350   79 82   60/ 17/ 21 1018.0R   5/ 9   3/110/ 9
BUOY 41025       2350   73 85   40/ 16/ 19 1019.2R   4/10   3/ 70/10
CAPE LOOKOUT NC  0000   73      50/ 16/ 18 1019.7R
BUOY 41002       2350   82 83   50/ 14/ 16 1016.6R   3/ 8   2/ 60/ 8
BUOY 41010       NOT AVBL
ST AUGUSTINE FL  0000   81 85   40/ 13/ 15 1016.9R

$$




USA.gov is the U.S. government's official web portal to all federal, state and local government web resources and services.